Location: Alta
(39.2070°N, 120.8111°W)
Time: 12:13:27
(UTC+00:00)

Hubble Space Telescope - Visible Passes

Search period start: 02 December 2022 00:00
Search period end: 12 December 2022 00:00
Orbit: 530 x 534 km, 28.5° (Epoch: 01 December)

Date Brightness Start Highest point End Pass type
(mag) Time Alt. Az. Time Alt. Az. Time Alt. Az.
08 Dec 3.5 13:00:23 10° S 13:01:29 11° SSE 13:02:36 10° SSE visible
08 Dec 3.2 14:39:03 10° SW 14:41:49 18° S 14:44:35 10° SE visible
09 Dec 3.4 12:48:17 12° S 12:48:43 12° SSE 12:50:28 10° SE visible
09 Dec 3.1 14:26:15 10° SW 14:29:03 18° S 14:31:52 10° SE visible
10 Dec 3.4 12:36:34 13° SSE 12:36:34 13° SSE 12:38:04 10° SE visible
10 Dec 3.0 14:13:30 10° SW 14:16:18 18° S 14:19:07 10° SE visible
11 Dec 3.6 12:24:47 12° SE 12:24:47 12° SE 12:25:34 10° SE visible
11 Dec 3.0 14:00:46 10° SW 14:03:33 18° S 14:06:20 10° SE visible
